Time,TemperatureF,DewpointF,PressureIn,WindDirection,WindDirectionDegrees,WindSpeedMPH,WindSpeedGustMPH,Humidity,HourlyPrecipIn,Conditions,Clouds,dailyrainin,SoftwareType,DateUTC
2013-02-10 00:01:00,16.0,15.0,-100.00,SW,217,9.0,11.0,95,0.01,,,-99.99,,2013-02-10 07:01:00,
2013-02-10 00:11:00,-999.0,-99.9,-100.00,SSW,213,7.0,11.0,-999,-99.99,,,-99.99,,2013-02-10 07:11:00,
2013-02-10 00:21:00,16.0,15.0,-100.00,SW,216,7.0,9.0,95,0.00,,,-99.99,,2013-02-10 07:21:00,
2013-02-10 00:31:00,16.0,15.0,-100.00,SSW,213,7.0,9.0,95,0.00,,,-99.99,,2013-02-10 07:31:00,
2013-02-10 00:41:00,16.0,15.0,-100.00,SSW,208,7.0,10.0,95,0.01,,,-99.99,,2013-02-10 07:41:00,
2013-02-10 00:51:00,16.0,15.0,-100.00,SSW,206,7.0,10.0,95,0.03,,,-99.99,,2013-02-10 07:51:00,
2013-02-10 01:01:00,16.0,15.0,-100.00,SSW,208,7.0,9.0,95,0.01,,,-99.99,,2013-02-10 08:01:00,
2013-02-10 01:11:00,16.0,15.0,-100.00,SSW,210,7.0,10.0,95,0.01,,,-99.99,,2013-02-10 08:11:00,
2013-02-10 01:21:00,16.0,15.0,-100.00,SSW,212,7.0,11.0,95,0.01,,,-99.99,,2013-02-10 08:21:00,
2013-02-10 01:32:00,16.0,15.0,-100.00,SSW,212,7.0,9.0,95,0.01,,,-99.99,,2013-02-10 08:32:00,
2013-02-10 01:43:00,16.0,15.0,-100.00,SSW,213,7.0,11.0,95,0.01,,,-99.99,,2013-02-10 08:43:00,
2013-02-10 01:52:00,16.0,15.0,-100.00,SW,215,7.0,10.0,95,0.01,,,-99.99,,2013-02-10 08:52:00,
2013-02-10 02:02:00,16.0,15.0,-100.00,SW,219,7.0,9.0,95,0.01,,,-99.99,,2013-02-10 09:02:00,
2013-02-10 02:11:00,16.0,15.0,-100.00,SW,217,6.0,9.0,95,0.01,,,-99.99,,2013-02-10 09:11:00,
2013-02-10 02:21:00,16.0,15.0,-100.00,SSW,213,5.0,7.0,95,0.01,,,-99.99,,2013-02-10 09:21:00,
2013-02-10 02:31:00,16.0,15.0,-100.00,SSW,212,6.0,10.0,95,0.01,,,-99.99,,2013-02-10 09:31:00,
2013-02-10 02:41:00,16.0,15.0,-100.00,SSW,208,6.0,11.0,95,0.01,,,-99.99,,2013-02-10 09:41:00,
2013-02-10 02:51:00,16.0,15.0,-100.00,SW,219,6.0,9.0,95,-99.99,,,-99.99,,2013-02-10 09:51:00,
2013-02-10 03:01:00,16.0,15.0,-100.00,SSW,213,6.0,7.0,95,0.01,,,-99.99,,2013-02-10 10:01:00,
2013-02-10 03:11:00,16.0,15.0,-100.00,SSW,202,5.0,7.0,95,0.01,,,-99.99,,2013-02-10 10:11:00,
2013-02-10 03:21:00,16.0,15.0,-100.00,SSW,196,6.0,10.0,95,0.01,,,-99.99,,2013-02-10 10:21:00,
2013-02-10 03:31:00,16.0,15.0,-100.00,SSW,199,7.0,11.0,95,0.01,,,-99.99,,2013-02-10 10:31:00,
2013-02-10 03:41:00,16.0,15.0,-100.00,SSW,202,9.0,14.0,95,0.00,,,-99.99,,2013-02-10 10:41:00,
2013-02-10 03:51:00,16.0,14.0,-100.00,SSW,203,11.0,13.0,95,0.01,,,-99.99,,2013-02-10 10:51:00,
2013-02-10 04:01:00,16.0,14.0,-100.00,SSW,203,11.0,14.0,95,0.01,,,-99.99,,2013-02-10 11:01:00,
2013-02-10 04:11:00,15.0,14.0,-100.00,SSW,205,11.0,14.0,95,0.01,,,-99.99,,2013-02-10 11:11:00,
2013-02-10 04:21:00,15.0,14.0,-100.00,SSW,208,10.0,14.0,95,0.01,,,-99.99,,2013-02-10 11:21:00,
2013-02-10 04:32:00,15.0,14.0,-100.00,SSW,212,11.0,14.0,95,0.01,,,-99.99,,2013-02-10 11:32:00,
2013-02-10 04:42:00,15.0,14.0,-100.00,SW,217,9.0,14.0,95,0.00,,,-99.99,,2013-02-10 11:42:00,
2013-02-10 04:52:00,15.0,14.0,-100.00,SW,219,7.0,10.0,95,0.01,,,-99.99,,2013-02-10 11:52:00,
2013-02-10 05:01:00,15.0,14.0,-100.00,SW,216,9.0,12.0,95,0.01,,,-99.99,,2013-02-10 12:01:00,
2013-02-10 05:12:00,15.0,14.0,-100.00,SW,217,9.0,12.0,95,0.01,,,-99.99,,2013-02-10 12:12:00,
2013-02-10 05:21:00,15.0,14.0,-100.00,SSW,212,7.0,12.0,95,0.01,,,-99.99,,2013-02-10 12:21:00,
2013-02-10 05:32:00,15.0,14.0,-100.00,SSW,208,7.0,10.0,95,0.01,,,-99.99,,2013-02-10 12:32:00,
2013-02-10 05:41:00,15.0,13.0,-100.00,SSW,209,7.0,10.0,95,0.01,,,-99.99,,2013-02-10 12:41:00,
2013-02-10 05:52:00,15.0,13.0,-100.00,SSW,200,6.0,9.0,95,0.00,,,-99.99,,2013-02-10 12:52:00,
2013-02-10 06:02:00,15.0,13.0,-100.00,SSW,199,6.0,9.0,94,0.00,,,-99.99,,2013-02-10 13:02:00,
2013-02-10 06:11:00,14.0,13.0,-100.00,SSW,202,6.0,8.0,94,0.00,,,-99.99,,2013-02-10 13:11:00,
2013-02-10 06:21:00,14.0,13.0,-100.00,SSW,202,7.0,9.0,94,0.00,,,-99.99,,2013-02-10 13:21:00,
2013-02-10 06:31:00,14.0,13.0,-100.00,SSW,205,7.0,11.0,94,0.00,,,-99.99,,2013-02-10 13:31:00,
2013-02-10 06:41:00,14.0,13.0,-100.00,SSW,203,7.0,11.0,94,0.00,,,-99.99,,2013-02-10 13:41:00,
2013-02-10 06:51:00,14.0,13.0,-100.00,SSW,210,7.0,11.0,94,0.01,,,-99.99,,2013-02-10 13:51:00,
2013-02-10 07:02:00,14.0,13.0,-100.00,SSW,208,7.0,11.0,94,0.00,,,-99.99,,2013-02-10 14:02:00,
2013-02-10 07:11:00,14.0,13.0,-100.00,SSW,205,7.0,9.0,94,-99.99,,,-99.99,,2013-02-10 14:11:00,
2013-02-10 07:21:00,14.0,12.0,-100.00,SSW,205,7.0,10.0,94,0.00,,,-99.99,,2013-02-10 14:21:00,
2013-02-10 07:31:00,14.0,12.0,-100.00,SSW,203,7.0,9.0,94,0.00,,,-99.99,,2013-02-10 14:31:00,
2013-02-10 07:41:00,14.0,13.0,-100.00,SSW,202,6.0,9.0,94,0.00,,,-99.99,,2013-02-10 14:41:00,
2013-02-10 07:52:00,14.0,12.0,-100.00,SSW,202,6.0,10.0,94,0.00,,,-99.99,,2013-02-10 14:52:00,
2013-02-10 08:01:00,14.0,13.0,-100.00,SSW,196,6.0,9.0,94,0.00,,,-99.99,,2013-02-10 15:01:00,
2013-02-10 08:11:00,14.0,13.0,-100.00,SSW,195,6.0,9.0,94,0.00,,,-99.99,,2013-02-10 15:11:00,
2013-02-10 08:21:00,14.0,13.0,-100.00,SSW,196,5.0,7.0,94,0.00,,,-99.99,,2013-02-10 15:21:00,
2013-02-10 08:31:00,14.0,12.0,-100.00,South,175,6.0,9.0,94,0.00,,,-99.99,,2013-02-10 15:31:00,
2013-02-10 08:42:00,14.0,13.0,-100.00,South,182,6.0,9.0,94,0.00,,,-99.99,,2013-02-10 15:42:00,
2013-02-10 08:51:00,14.0,13.0,-100.00,SSW,205,7.0,12.0,94,0.00,,,-99.99,,2013-02-10 15:51:00,
2013-02-10 09:02:00,14.0,13.0,-100.00,SW,224,8.0,12.0,94,0.00,,,-99.99,,2013-02-10 16:02:00,
2013-02-10 09:21:00,15.0,13.0,-100.00,SW,217,5.0,7.0,95,0.00,,,-99.99,,2013-02-10 16:21:00,
2013-02-10 09:32:00,15.0,13.0,-100.00,SW,223,6.0,9.0,94,0.00,,,-99.99,,2013-02-10 16:32:00,
2013-02-10 09:42:00,15.0,13.0,-100.00,SSW,209,6.0,8.0,94,0.00,,,-99.99,,2013-02-10 16:42:00,
2013-02-10 09:51:00,15.0,14.0,-100.00,SSW,200,6.0,9.0,94,0.00,,,-99.99,,2013-02-10 16:51:00,
2013-02-10 10:01:00,15.0,14.0,-100.00,SSW,199,7.0,9.0,94,0.03,,,-99.99,,2013-02-10 17:01:00,
2013-02-10 10:11:00,15.0,14.0,-100.00,SSW,198,9.0,12.0,94,0.01,,,-99.99,,2013-02-10 17:11:00,
2013-02-10 10:21:00,15.0,14.0,-100.00,SSW,198,7.0,12.0,94,0.00,,,-99.99,,2013-02-10 17:21:00,
2013-02-10 10:32:00,15.0,14.0,-100.00,SSW,199,7.0,10.0,95,0.00,,,-99.99,,2013-02-10 17:32:00,
2013-02-10 10:42:00,15.0,14.0,-100.00,SSW,195,7.0,9.0,95,0.03,,,-99.99,,2013-02-10 17:42:00,
2013-02-10 10:52:00,15.0,14.0,-100.00,SSW,206,8.0,11.0,94,0.07,,,-99.99,,2013-02-10 17:52:00,
2013-02-10 11:02:00,15.0,14.0,-100.00,SW,223,7.0,9.0,95,0.06,,,-99.99,,2013-02-10 18:02:00,
2013-02-10 11:11:00,15.0,14.0,-100.00,SW,215,7.0,9.0,94,0.06,,,-99.99,,2013-02-10 18:11:00,
2013-02-10 11:21:00,15.0,14.0,-100.00,SW,215,7.0,11.0,94,0.03,,,-99.99,,2013-02-10 18:21:00,
2013-02-10 11:32:00,15.0,14.0,-100.00,SSW,208,6.0,9.0,94,0.00,,,-99.99,,2013-02-10 18:32:00,
2013-02-10 11:42:00,15.0,14.0,-100.00,SSW,212,8.0,11.0,94,0.01,,,-99.99,,2013-02-10 18:42:00,
2013-02-10 11:52:00,16.0,14.0,-100.00,SW,230,7.0,11.0,94,0.00,,,-99.99,,2013-02-10 18:52:00,
2013-02-10 12:01:00,16.0,14.0,-100.00,WSW,241,8.0,11.0,94,0.01,,,-99.99,,2013-02-10 19:01:00,
2013-02-10 12:11:00,15.0,14.0,-100.00,West,260,9.0,11.0,94,0.00,,,-99.99,,2013-02-10 19:11:00,
2013-02-10 12:21:00,16.0,14.0,-100.00,WSW,258,7.0,9.0,95,0.00,,,-99.99,,2013-02-10 19:21:00,
2013-02-10 12:32:00,16.0,15.0,-100.00,WSW,257,6.0,8.0,95,0.01,,,-99.99,,2013-02-10 19:32:00,
2013-02-10 12:42:00,16.0,15.0,-100.00,WSW,250,6.0,7.0,95,0.00,,,-99.99,,2013-02-10 19:42:00,
2013-02-10 12:51:00,16.0,15.0,-100.00,WSW,237,6.0,7.0,95,0.01,,,-99.99,,2013-02-10 19:51:00,
2013-02-10 13:02:00,17.0,15.0,-100.00,WSW,237,5.0,7.0,94,0.00,,,-99.99,,2013-02-10 20:02:00,
2013-02-10 13:11:00,17.0,15.0,-100.00,SW,227,5.0,7.0,95,0.00,,,-99.99,,2013-02-10 20:11:00,
2013-02-10 13:21:00,16.0,15.0,-100.00,SW,236,5.0,7.0,94,0.00,,,-99.99,,2013-02-10 20:21:00,
2013-02-10 13:32:00,17.0,16.0,-100.00,SW,229,4.0,7.0,94,0.00,,,-99.99,,2013-02-10 20:32:00,
2013-02-10 13:42:00,16.0,15.0,-100.00,SW,219,4.0,7.0,94,0.00,,,-99.99,,2013-02-10 20:42:00,
2013-02-10 13:52:00,16.0,15.0,-100.00,SSW,212,4.0,6.0,93,0.00,,,-99.99,,2013-02-10 20:52:00,
2013-02-10 14:02:00,17.0,15.0,-100.00,SSW,195,4.0,6.0,93,0.00,,,-99.99,,2013-02-10 21:02:00,
2013-02-10 14:11:00,16.0,14.0,-100.00,SSW,192,5.0,7.0,93,0.00,,,-99.99,,2013-02-10 21:11:00,
2013-02-10 14:21:00,16.0,15.0,-100.00,South,191,5.0,7.0,93,0.00,,,-99.99,,2013-02-10 21:21:00,
2013-02-10 14:32:00,16.0,15.0,-100.00,SW,226,4.0,7.0,93,0.00,,,-99.99,,2013-02-10 21:32:00,
2013-02-10 14:42:00,17.0,15.0,-100.00,WSW,240,4.0,7.0,94,0.00,,,-99.99,,2013-02-10 21:42:00,
2013-02-10 14:51:00,18.0,17.0,-100.00,WSW,248,3.0,5.0,94,0.00,,,-99.99,,2013-02-10 21:51:00,
2013-02-10 15:01:00,18.0,17.0,-100.00,SW,233,4.0,6.0,93,0.00,,,-99.99,,2013-02-10 22:01:00,
2013-02-10 15:11:00,17.0,15.0,-100.00,SW,236,4.0,6.0,92,0.00,,,-99.99,,2013-02-10 22:11:00,
2013-02-10 15:21:00,17.0,15.0,-100.00,WSW,246,4.0,7.0,92,0.00,,,-99.99,,2013-02-10 22:21:00,
2013-02-10 15:32:00,16.0,14.0,-100.00,WSW,240,6.0,7.0,92,0.00,,,-99.99,,2013-02-10 22:32:00,
2013-02-10 15:42:00,15.0,13.0,-100.00,SW,217,6.0,7.0,92,0.00,,,-99.99,,2013-02-10 22:42:00,
2013-02-10 15:52:00,15.0,13.0,-100.00,SSW,202,6.0,9.0,92,0.00,,,-99.99,,2013-02-10 22:52:00,
2013-02-10 16:02:00,15.0,13.0,-100.00,SSW,199,6.0,9.0,92,-99.99,,,-99.99,,2013-02-10 23:02:00,
2013-02-10 16:11:00,16.0,14.0,-100.00,SSW,198,5.0,7.0,93,0.00,,,-99.99,,2013-02-10 23:11:00,
2013-02-10 16:21:00,15.0,13.0,-100.00,SSW,193,6.0,9.0,91,0.00,,,-99.99,,2013-02-10 23:21:00,
2013-02-10 16:32:00,15.0,13.0,-100.00,SSW,192,6.0,9.0,92,0.00,,,-99.99,,2013-02-10 23:32:00,
2013-02-10 16:42:00,15.0,12.0,-100.00,South,172,7.0,10.0,91,0.00,,,-99.99,,2013-02-10 23:42:00,
2013-02-10 16:52:00,13.0,11.0,-100.00,SSW,193,9.0,12.0,90,0.00,,,-99.99,,2013-02-10 23:52:00,
2013-02-10 17:02:00,13.0,10.0,-100.00,SSW,195,7.0,10.0,90,0.00,,,-99.99,,2013-02-11 00:02:00,
2013-02-10 17:11:00,12.0,10.0,-100.00,SSW,195,9.0,12.0,91,0.00,,,-99.99,,2013-02-11 00:11:00,
2013-02-10 17:22:00,11.0,9.0,-100.00,SSW,196,9.0,11.0,91,0.00,,,-99.99,,2013-02-11 00:22:00,
2013-02-10 17:32:00,11.0,9.0,-100.00,SSW,195,9.0,12.0,92,0.00,,,-99.99,,2013-02-11 00:32:00,
2013-02-10 17:42:00,10.0,8.0,-100.00,SSW,198,9.0,12.0,92,0.00,,,-99.99,,2013-02-11 00:42:00,
2013-02-10 17:51:00,9.0,8.0,-100.00,SSW,199,9.0,11.0,92,0.00,,,-99.99,,2013-02-11 00:51:00,
2013-02-10 18:01:00,9.0,7.0,-100.00,SSW,202,9.0,11.0,91,0.00,,,-99.99,,2013-02-11 01:01:00,
2013-02-10 18:11:00,8.0,6.0,-100.00,SSW,205,9.0,12.0,92,0.00,,,-99.99,,2013-02-11 01:11:00,
2013-02-10 18:21:00,8.0,7.0,-100.00,SSW,206,9.0,11.0,92,0.00,,,-99.99,,2013-02-11 01:21:00,
2013-02-10 18:32:00,7.0,5.0,-100.00,SSE,158,4.0,9.0,90,0.00,,,-99.99,,2013-02-11 01:32:00,
2013-02-10 18:42:00,-999.0,-99.9,-100.00,East,83,2.0,4.0,-999,-99.99,,,-99.99,,2013-02-11 01:42:00,
2013-02-10 18:52:00,7.0,5.0,-100.00,East,88,4.0,7.0,91,0.00,,,-99.99,,2013-02-11 01:52:00,
2013-02-10 19:01:00,8.0,6.0,-100.00,SE,143,4.0,9.0,91,0.00,,,-99.99,,2013-02-11 02:01:00,
2013-02-10 19:11:00,8.0,6.0,-100.00,South,181,4.0,9.0,91,0.00,,,-99.99,,2013-02-11 02:11:00,
2013-02-10 19:21:00,7.0,5.0,-100.00,SSE,151,4.0,7.0,91,0.00,,,-99.99,,2013-02-11 02:21:00,
2013-02-10 19:31:00,7.0,5.0,-100.00,SSE,165,6.0,11.0,90,0.00,,,-99.99,,2013-02-11 02:31:00,
2013-02-10 19:42:00,6.0,4.0,-100.00,SE,144,6.0,9.0,90,-99.99,,,-99.99,,2013-02-11 02:42:00,
2013-02-10 19:52:00,-999.0,-99.9,-100.00,SE,137,6.0,9.0,-999,-99.99,,,-99.99,,2013-02-11 02:52:00,
2013-02-10 20:01:00,5.0,2.0,-100.00,SE,134,6.0,9.0,90,0.00,,,-99.99,,2013-02-11 03:01:00,
2013-02-10 20:11:00,6.0,3.0,-100.00,ESE,123,6.0,10.0,89,0.00,,,-99.99,,2013-02-11 03:11:00,
2013-02-10 20:21:00,6.0,3.0,-100.00,SE,130,5.0,8.0,88,0.00,,,-99.99,,2013-02-11 03:21:00,
2013-02-10 20:31:00,5.0,2.0,-100.00,SE,136,4.0,6.0,88,0.00,,,-99.99,,2013-02-11 03:31:00,
2013-02-10 20:42:00,5.0,2.0,-100.00,SE,131,4.0,8.0,87,0.00,,,-99.99,,2013-02-11 03:42:00,
2013-02-10 20:52:00,5.0,2.0,-100.00,SE,138,6.0,8.0,87,0.00,,,-99.99,,2013-02-11 03:52:00,
2013-02-10 21:01:00,4.0,0.0,-100.00,SE,136,4.0,7.0,87,0.00,,,-99.99,,2013-02-11 04:01:00,
2013-02-10 21:11:00,3.0,0.0,-100.00,ESE,120,4.0,6.0,87,0.00,,,-99.99,,2013-02-11 04:11:00,
2013-02-10 21:21:00,4.0,0.0,-100.00,ESE,112,5.0,7.0,86,0.00,,,-99.99,,2013-02-11 04:21:00,
2013-02-10 21:31:00,4.0,0.0,-100.00,ESE,110,4.0,6.0,86,0.00,,,-99.99,,2013-02-11 04:31:00,
2013-02-10 21:42:00,4.0,1.0,-100.00,SE,136,4.0,7.0,85,0.00,,,-99.99,,2013-02-11 04:42:00,
2013-02-10 21:51:00,4.0,0.0,-100.00,SE,137,4.0,7.0,84,0.00,,,-99.99,,2013-02-11 04:51:00,
2013-02-10 22:01:00,4.0,0.0,-100.00,SE,138,4.0,7.0,84,0.00,,,-99.99,,2013-02-11 05:01:00,
2013-02-10 22:11:00,4.0,0.0,-100.00,SE,126,4.0,6.0,84,0.00,,,-99.99,,2013-02-11 05:11:00,
2013-02-10 22:22:00,4.0,0.0,-100.00,SE,130,4.0,6.0,83,0.00,,,-99.99,,2013-02-11 05:22:00,
2013-02-10 22:31:00,4.0,0.0,-100.00,SE,126,5.0,7.0,83,0.00,,,-99.99,,2013-02-11 05:31:00,
2013-02-10 22:42:00,-999.0,-99.9,-100.00,SE,127,4.0,7.0,-999,-99.99,,,-99.99,,2013-02-11 05:42:00,
2013-02-10 22:52:00,2.0,-2.0,-100.00,ESE,121,4.0,6.0,83,0.00,,,-99.99,,2013-02-11 05:52:00,
2013-02-10 23:02:00,2.0,-2.0,-100.00,ESE,104,6.0,8.0,83,0.00,,,-99.99,,2013-02-11 06:02:00,
2013-02-10 23:11:00,2.0,-2.0,-100.00,East,86,7.0,9.0,83,0.00,,,-99.99,,2013-02-11 06:11:00,
2013-02-10 23:21:00,2.0,-2.0,-100.00,East,89,7.0,9.0,81,0.00,,,-99.99,,2013-02-11 06:21:00,
2013-02-10 23:32:00,1.0,-3.0,-100.00,East,86,7.0,9.0,82,-99.99,,,-99.99,,2013-02-11 06:32:00,
2013-02-10 23:42:00,3.0,-1.0,-100.00,East,99,8.0,12.0,81,0.00,,,-99.99,,2013-02-11 06:42:00,
2013-02-10 23:51:00,3.0,-3.0,-100.00,East,93,9.0,12.0,78,0.00,,,-99.99,,2013-02-11 06:51:00,